| time (UTC) | temp C | wind direction | speed KPH | gust KPH | rain 1hr cm | rain 24hr cm | rain mn cm | humidity % | barometer mb |
| 20260503004604 | 11 | 297 | 8.0 | 8.0 | 0.13 | 0.41 | 0.41 | 1009.4 | |
| 20260503004105 | 11 | 297 | 4.8 | 8.0 | 0.10 | 0.38 | 0.38 | 1009.4 | |
| 20260503003603 | 11 | 297 | 4.8 | 8.0 | 0.10 | 0.33 | 0.33 | 1009.4 | |
| 20260503003104 | 11 | 297 | 3.2 | 8.0 | 0.15 | 0.33 | 0.33 | 1009.4 | |
| 20260503002604 | 11 | 297 | 3.2 | 8.0 | 0.15 | 0.33 | 0.33 | 1009.4 | |
| 20260503002103 | 11 | 297 | 4.8 | 8.0 | 0.13 | 0.33 | 0.33 | 1009.4 | |
| 20260503001606 | 11 | 297 | 3.2 | 8.0 | 0.15 | 0.33 | 0.33 | 1009.4 | |
| 20260503001105 | 11 | 298 | 4.8 | 8.0 | 0.15 | 0.30 | 0.30 | 1009.4 | |
| 20260503000604 | 11 | 297 | 4.8 | 8.0 | 0.15 | 0.28 | 0.28 | 1009.4 | |
| 20260503000105 | 11 | 298 | 3.2 | 8.0 | 0.15 | 0.28 | 0.28 | 1009.7 | |
| 20260502235604 | 11 | 298 | 8.0 | 8.0 | 0.15 | 0.28 | 0.28 | 1009.7 | |
| 20260502235105 | 11 | 298 | 4.8 | 8.0 | 0.18 | 0.28 | 0.28 | 1009.7 | |
| 20260502234603 | 11 | 298 | 4.8 | 8.0 | 0.18 | 0.28 | 0.28 | 1009.7 | |
| 20260502234103 | 11 | 298 | 8.0 | 8.0 | 0.20 | 0.28 | 0.28 | 1009.7 | |
| 20260502233604 | 11 | 299 | 3.2 | 8.0 | 0.15 | 0.23 | 0.23 | 1009.7 | |
| 20260502233104 | 11 | 299 | 4.8 | 8.0 | 0.13 | 0.20 | 0.20 | 1009.7 | |
| 20260502232604 | 11 | 298 | 3.2 | 8.0 | 0.13 | 0.20 | 0.20 | 1009.7 | |
| 20260502232103 | 11 | 299 | 4.8 | 8.0 | 0.13 | 0.20 | 0.20 | 1009.7 | |
| 20260502231604 | 11 | 299 | 3.2 | 3.2 | 0.13 | 0.15 | 0.15 | 1009.7 | |
| 20260502231104 | 11 | 298 | 3.2 | 8.0 | 0.13 | 0.15 | 0.15 | 1009.7 | |
| 20260502230604 | 11 | 299 | 4.8 | 8.0 | 0.10 | 0.15 | 0.15 | 1009.7 | |
| 20260502230104 | 11 | 299 | 3.2 | 3.2 | 0.15 | 0.15 | 0.15 | 1009.9 | |
| 20260502225603 | 11 | 300 | 3.2 | 3.2 | 0.15 | 0.15 | 0.15 | 1009.9 | |
| 20260502225104 | 11 | 299 | 3.2 | 3.2 | 0.10 | 0.10 | 0.10 | 1009.9 | |
| 20260502224604 | 11 | 300 | 3.2 | 3.2 | 0.10 | 0.10 | 0.10 | 1009.9 | |
| 20260502224103 | 11 | 299 | 3.2 | 8.0 | 0.08 | 0.08 | 0.08 | 1009.9 | |
| 20260502223605 | 11 | 301 | 3.2 | 8.0 | 0.08 | 0.08 | 0.08 | 1009.9 | |
| 20260502223104 | 11 | 300 | 4.8 | 8.0 | 0.08 | 0.08 | 0.08 | 1009.9 | |
| 20260502222604 | 11 | 301 | 8.0 | 8.0 | 0.08 | 0.08 | 0.08 | 1009.9 | |
| 20260502222104 | 12 | 301 | 8.0 | 8.0 | 0.08 | 0.08 | 0.08 | 1009.9 | |
| 20260502221604 | 12 | 301 | 1.6 | 3.2 | 0.05 | 0.05 | 0.05 | 1009.9 | |
| 20260502221103 | 12 | 301 | 3.2 | 3.2 | 0.05 | 0.05 | 0.05 | 1009.9 | |
| 20260502220604 | 12 | 301 | 1.6 | 3.2 | 0.05 | 0.05 | 0.05 | 1009.9 | |
| 20260502215605 | 12 | 301 | 0.0 | 3.2 | 0.00 | 0.00 | 0.00 | 1010.2 | |
| 20260502215104 | 12 | 301 | 1.6 | 3.2 | 0.00 | 0.00 | 0.00 | 1010.2 | |
| 20260502214604 | 12 | 302 | 3.2 | 3.2 | 0.00 | 0.00 | 0.00 | 1010.2 | |
| 20260502214104 | 12 | 302 | 3.2 | 3.2 | 0.00 | 0.00 | 0.00 | 1010.2 | |
| 20260502213604 | 12 | 302 | 0.0 | 0.0 | 0.00 | 0.00 | 0.00 | 1010.2 | |
| 20260502213104 | 12 | 302 | 0.0 | 0.0 | 0.00 | 0.00 | 0.00 | 1010.2 | |
| 20260502212604 | 12 | 302 | 0.0 | 0.0 | 0.00 | 0.00 | 0.00 | 1010.2 | |
| 20260502212104 | 12 | 303 | 0.0 | 0.0 | 0.00 | 0.00 | 0.00 | 1010.2 | |
| 20260502211604 | 12 | 303 | 0.0 | 0.0 | 0.00 | 0.00 | 0.00 | 1010.2 | |
| 20260502211105 | 12 | 303 | 3.2 | 3.2 | 0.00 | 0.00 | 0.00 | 1010.2 | |
| 20260502210603 | 12 | 303 | 0.0 | 0.0 | 0.00 | 0.00 | 0.00 | 1010.2 | |
| 20260502210104 | 12 | 304 | 0.0 | 0.0 | 0.00 | 0.00 | 0.00 | 1010.3 | |
| 20260502205604 | 13 | 304 | 0.0 | 0.0 | 0.00 | 0.00 | 0.00 | 1010.3 | |
| 20260502205104 | 13 | 304 | 0.0 | 0.0 | 0.00 | 0.00 | 0.00 | 1010.3 | |
| 20260502204604 | 13 | 304 | 0.0 | 0.0 | 0.00 | 0.00 | 0.00 | 1010.3 | |
| 20260502204105 | 13 | 304 | 0.0 | 0.0 | 0.00 | 0.00 | 0.00 | 1010.3 | |
| 20260502203603 | 13 | 304 | 0.0 | 0.0 | 0.00 | 0.00 | 0.00 | 1010.3 | |
| 20260502203104 | 13 | 305 | 0.0 | 0.0 | 0.00 | 0.00 | 0.00 | 1010.3 | |
| 20260502202604 | 13 | 305 | 0.0 | 0.0 | 0.00 | 0.00 | 0.00 | 1010.3 | |
| 20260502202105 | 13 | 305 | 0.0 | 0.0 | 0.00 | 0.00 | 0.00 | 1010.3 | |
| 20260502201603 | 13 | 305 | 0.0 | 0.0 | 0.00 | 0.00 | 0.00 | 1010.3 | |
| 20260502201104 | 13 | 306 | 0.0 | 0.0 | 0.00 | 0.00 | 0.00 | 1010.3 | |
| 20260502200603 | 13 | 306 | 0.0 | 0.0 | 0.00 | 0.00 | 0.00 | 1010.3 | |
| 20260502200104 | 13 | 306 | 0.0 | 0.0 | 0.00 | 0.00 | 0.00 | 1010.4 | |
| 20260502195604 | 13 | 307 | 0.0 | 0.0 | 0.00 | 0.00 | 0.00 | 1010.4 | |
| 20260502194104 | 13 | 308 | 0.0 | 0.0 | 0.00 | 0.00 | 0.00 | 1010.4 | |
| 20260502193603 | 13 | 308 | 0.0 | 0.0 | 0.00 | 0.00 | 0.00 | 1010.4 | |
| 20260502193104 | 13 | 309 | 0.0 | 0.0 | 0.00 | 0.00 | 0.00 | 1010.4 | |
| 20260502192604 | 13 | 309 | 0.0 | 0.0 | 0.00 | 0.00 | 0.00 | 1010.4 | |
| 20260502192103 | 13 | 310 | 0.0 | 0.0 | 0.00 | 0.00 | 0.00 | 1010.4 | |
| 20260502191104 | 14 | 311 | 0.0 | 0.0 | 0.00 | 0.00 | 0.00 | 1010.4 | |
| 20260502190604 | 14 | 314 | 0.0 | 0.0 | 0.00 | 0.05 | 0.00 | 1010.4 | |
| 20260502190104 | 14 | 314 | 0.0 | 0.0 | 0.00 | 0.10 | 0.00 | 1010.7 | |
| 20260502185604 | 14 | 315 | 3.2 | 3.2 | 0.00 | 0.15 | 0.00 | 1010.7 | |
| 20260502185104 | 14 | 316 | 3.2 | 3.2 | 0.00 | 0.15 | 0.00 | 1010.7 | |
| 20260502184604 | 14 | 316 | 0.0 | 0.0 | 0.00 | 0.15 | 0.00 | 1010.7 | |
| 20260502184104 | 14 | 317 | 0.0 | 0.0 | 0.00 | 0.15 | 0.00 | 1010.7 | |
| 20260502183603 | 14 | 318 | 0.0 | 0.0 | 0.00 | 0.15 | 0.00 | 1010.7 | |
| 20260502183106 | 14 | 319 | 0.0 | 0.0 | 0.00 | 0.15 | 0.00 | 1010.7 | |
| 20260502181604 | 15 | 321 | 0.0 | 0.0 | 0.00 | 0.15 | 0.00 | 1010.7 | |
| 20260502181104 | 15 | 322 | 0.0 | 0.0 | 0.00 | 0.15 | 0.00 | 1010.7 | |
| 20260502180604 | 15 | 323 | 0.0 | 0.0 | 0.00 | 0.15 | 0.00 | 1010.7 | |
| 20260502180104 | 15 | 325 | 0.0 | 0.0 | 0.00 | 0.15 | 0.00 | 1011.0 | |
| 20260502170104 | 16 | 339 | 3.2 | 3.2 | 0.00 | 0.23 | 0.00 | 1011.6 | |
| 20260502164104 | 16 | 345 | 3.2 | 8.0 | 0.00 | 0.23 | 0.00 | 1011.6 | |
| 20260502163104 | 16 | 346 | 3.2 | 3.2 | 0.00 | 0.23 | 0.00 | 1011.6 | |
| 20260502162604 | 16 | 343 | 8.0 | 8.0 | 0.00 | 0.23 | 0.00 | 1011.6 | |
| 20260502162104 | 16 | 347 | 1.6 | 8.0 | 0.00 | 0.23 | 0.00 | 1011.6 | |
| 20260502161604 | 16 | 347 | 1.6 | 3.2 | 0.00 | 0.23 | 0.00 | 1011.6 | |
| 20260502160104 | 16 | 349 | 1.6 | 3.2 | 0.00 | 0.23 | 0.00 | 1012.5 | |
| 20260502152103 | 16 | 350 | 4.8 | 8.0 | 0.00 | 0.23 | 0.00 | 1012.5 | |
| 20260502151604 | 16 | 348 | 8.0 | 8.0 | 0.00 | 0.23 | 0.00 | 1012.5 | |
| 20260502150604 | 16 | 349 | 3.2 | 3.2 | 0.00 | 0.23 | 0.00 | 1012.5 | |
| 20260502150104 | 16 | 349 | 8.0 | 8.0 | 0.00 | 0.23 | 0.00 | 1013.0 | |
| 20260502130604 | 15 | 331 | 8.0 | 8.0 | 0.00 | 0.23 | 0.00 | 1013.6 | |
| 20260502130104 | 15 | 331 | 4.8 | 8.0 | 0.00 | 0.23 | 0.00 | 1014.2 | |
| 20260502123604 | 15 | 329 | 8.0 | 11.3 | 0.00 | 0.23 | 0.00 | 1014.2 | |
| 20260502123104 | 15 | 328 | 8.0 | 8.0 | 0.00 | 0.23 | 0.00 | 1014.2 | |
| 20260502122604 | 15 | 328 | 8.0 | 8.0 | 0.00 | 0.23 | 0.00 | 1014.2 | |
| 20260502121604 | 15 | 327 | 9.7 | 11.3 | 0.00 | 0.23 | 0.00 | 1014.2 | |
| 20260502121103 | 15 | 326 | 8.0 | 8.0 | 0.00 | 0.23 | 0.00 | 1014.2 | |
| 20260502120604 | 15 | 325 | 8.0 | 8.0 | 0.00 | 0.23 | 0.00 | 1014.2 | |
| 20260502120104 | 14 | 324 | 4.8 | 8.0 | 0.00 | 0.23 | 0.00 | 1014.2 | |
| 20260502115604 | 14 | 323 | 8.0 | 8.0 | 0.00 | 0.23 | 0.00 | 1014.2 | |
| 20260502115104 | 14 | 322 | 3.2 | 8.0 | 0.00 | 0.23 | 0.00 | 1014.2 | |
| 20260502113603 | 13 | 318 | 8.0 | 8.0 | 0.00 | 0.23 | 0.00 | 1014.2 | |
| 20260502113104 | 13 | 318 | 4.8 | 11.3 | 0.00 | 0.23 | 0.00 | 1014.2 | |
| 20260502112106 | 13 | 315 | 8.0 | 11.3 | 0.00 | 0.23 | 0.00 | 1014.2 | |
| 20260502111604 | 13 | 314 | 8.0 | 11.3 | 0.00 | 0.23 | 0.00 | 1014.2 | |
| 20260502111105 | 13 | 314 | 9.7 | 11.3 | 0.00 | 0.23 | 0.00 | 1014.2 | |
| 20260502110605 | 13 | 313 | 8.0 | 8.0 | 0.00 | 0.23 | 0.00 | 1014.2 | |
| 20260502110106 | 13 | 312 | 3.2 | 8.0 | 0.00 | 0.23 | 0.00 | 1014.2 | |
| 20260502105604 | 13 | 312 | 8.0 | 11.3 | 0.00 | 0.23 | 0.00 | 1014.2 | |
| 20260502105104 | 12 | 311 | 8.0 | 8.0 | 0.00 | 0.23 | 0.00 | 1014.2 | |
| 20260502104604 | 12 | 310 | 4.8 | 8.0 | 0.00 | 0.23 | 0.00 | 1014.2 | |
| 20260502104104 | 12 | 311 | 8.0 | 8.0 | 0.00 | 0.23 | 0.00 | 1014.2 | |
| 20260502103604 | 12 | 310 | 4.8 | 8.0 | 0.00 | 0.23 | 0.00 | 1014.2 | |
| 20260502103104 | 12 | 310 | 4.8 | 8.0 | 0.00 | 0.23 | 0.00 | 1014.2 | |
| 20260502102604 | 12 | 310 | 3.2 | 3.2 | 0.00 | 0.23 | 0.00 | 1014.2 | |
| 20260502102104 | 12 | 309 | 8.0 | 8.0 | 0.00 | 0.23 | 0.00 | 1014.2 | |
| 20260502101604 | 12 | 307 | 3.2 | 8.0 | 0.00 | 0.23 | 0.00 | 1014.2 | |
| 20260502101105 | 12 | 307 | 4.8 | 8.0 | 0.00 | 0.23 | 0.00 | 1014.2 | |
| 20260502100604 | 12 | 307 | 3.2 | 8.0 | 0.00 | 0.23 | 0.00 | 1014.2 | |
| 20260502100105 | 12 | 306 | 8.0 | 11.3 | 0.00 | 0.23 | 0.00 | 1014.6 | |
| 20260502091104 | 11 | 301 | 8.0 | 8.0 | 0.00 | 0.23 | 0.00 | 1014.6 | |
| 20260502090605 | 11 | 300 | 8.0 | 11.3 | 0.00 | 0.23 | 0.00 | 1014.6 | |
| 20260502080105 | 11 | 300 | 4.8 | 8.0 | 0.00 | 0.23 | 0.23 | 1014.4 | |
| 20260502071105 | 11 | 299 | 11.3 | 11.3 | 0.00 | 0.23 | 0.23 | 1014.4 | |
| 20260502070604 | 11 | 298 | 8.0 | 11.3 | 0.00 | 0.23 | 0.23 | 1014.4 | |
| 20260502065605 | 11 | 298 | 9.7 | 11.3 | 0.00 | 0.23 | 0.23 | 1014.2 | |
| 20260502064604 | 11 | 298 | 9.7 | 11.3 | 0.00 | 0.23 | 0.23 | 1014.2 | |
| 20260502064104 | 11 | 298 | 8.0 | 11.3 | 0.00 | 0.23 | 0.23 | 1014.2 | |
| 20260502063604 | 11 | 297 | 8.0 | 11.3 | 0.00 | 0.23 | 0.23 | 1014.2 | |
| 20260502063104 | 11 | 297 | 11.3 | 11.3 | 0.00 | 0.23 | 0.23 | 1014.2 | |
| 20260502062604 | 11 | 297 | 11.3 | 11.3 | 0.00 | 0.23 | 0.23 | 1014.2 | |
| 20260502062104 | 11 | 297 | 11.3 | 14.5 | 0.00 | 0.23 | 0.23 | 1014.2 | |
| 20260502061605 | 11 | 297 | 11.3 | 11.3 | 0.00 | 0.23 | 0.23 | 1014.2 | |
| 20260502060604 | 11 | 297 | 14.5 | 14.5 | 0.00 | 0.23 | 0.23 | 1014.2 | |
| 20260502060105 | 11 | 297 | 8.0 | 11.3 | 0.00 | 0.23 | 0.23 | 1014.2 | |
| 20260502055604 | 11 | 297 | 8.0 | 11.3 | 0.00 | 0.23 | 0.23 | 1014.2 | |
| 20260502055104 | 11 | 297 | 8.0 | 8.0 | 0.00 | 0.23 | 0.23 | 1014.2 | |
| 20260502054103 | 11 | 297 | 8.0 | 11.3 | 0.00 | 0.23 | 0.23 | 1014.2 | |
| 20260502053604 | 11 | 297 | 8.0 | 11.3 | 0.00 | 0.23 | 0.23 | 1014.2 | |
| 20260502053105 | 11 | 297 | 8.0 | 11.3 | 0.00 | 0.23 | 0.23 | 1014.2 | |
| 20260502052604 | 11 | 297 | 9.7 | 11.3 | 0.00 | 0.23 | 0.23 | 1014.2 | |
| 20260502052104 | 10 | 297 | 11.3 | 11.3 | 0.00 | 0.23 | 0.23 | 1014.2 | |
| 20260502051103 | 10 | 297 | 8.0 | 11.3 | 0.00 | 0.23 | 0.23 | 1014.2 | |
| 20260502050604 | 10 | 297 | 8.0 | 11.3 | 0.00 | 0.23 | 0.23 | 1014.2 | |
| 20260502050105 | 10 | 296 | 9.7 | 11.3 | 0.00 | 0.23 | 0.23 | 1014.4 | |
| 20260502045604 | 10 | 296 | 8.0 | 11.3 | 0.00 | 0.23 | 0.23 | 1014.4 | |
| 20260502045104 | 10 | 296 | 11.3 | 11.3 | 0.00 | 0.23 | 0.23 | 1014.4 | |
| 20260502044605 | 10 | 296 | 9.7 | 11.3 | 0.00 | 0.23 | 0.23 | 1014.4 | |
| 20260502043604 | 10 | 296 | 11.3 | 14.5 | 0.00 | 0.23 | 0.23 | 1014.4 | |
| 20260502043104 | 10 | 296 | 11.3 | 11.3 | 0.00 | 0.23 | 0.23 | 1014.4 | |
| 20260502042604 | 10 | 297 | 9.7 | 11.3 | 0.00 | 0.23 | 0.23 | 1014.4 | |
| 20260502042103 | 10 | 297 | 11.3 | 14.5 | 0.00 | 0.23 | 0.23 | 1014.4 | |
| 20260502041604 | 10 | 297 | 8.0 | 14.5 | 0.00 | 0.23 | 0.23 | 1014.4 | |
| 20260502040604 | 10 | 296 | 12.9 | 14.5 | 0.00 | 0.23 | 0.23 | 1014.4 | |
| 20260502040104 | 10 | 296 | 11.3 | 14.5 | 0.00 | 0.23 | 0.23 | 1014.6 | |
| 20260502035604 | 10 | 297 | 11.3 | 11.3 | 0.00 | 0.23 | 0.23 | 1014.6 | |
| 20260502034604 | 11 | 296 | 9.7 | 11.3 | 0.00 | 0.23 | 0.23 | 1014.6 | |
| 20260502034103 | 11 | 296 | 11.3 | 11.3 | 0.00 | 0.23 | 0.23 | 1014.6 | |
| 20260502033606 | 11 | 296 | 14.5 | 14.5 | 0.00 | 0.23 | 0.23 | 1014.6 | |
| 20260502033104 | 11 | 296 | 8.0 | 11.3 | 0.00 | 0.23 | 0.23 | 1014.6 | |
| 20260502032604 | 11 | 296 | 8.0 | 11.3 | 0.00 | 0.23 | 0.23 | 1014.6 | |
| 20260502032103 | 11 | 296 | 8.0 | 8.0 | 0.00 | 0.23 | 0.23 | 1014.6 | |
| 20260502031105 | 11 | 296 | 8.0 | 11.3 | 0.00 | 0.23 | 0.23 | 1014.6 | |
| 20260502030604 | 10 | 296 | 8.0 | 11.3 | 0.00 | 0.23 | 0.23 | 1014.6 | |
| 20260502030104 | 10 | 296 | 11.3 | 11.3 | 0.00 | 0.23 | 0.23 | 1015.2 | |
| 20260502025605 | 10 | 296 | 11.3 | 11.3 | 0.00 | 0.23 | 0.23 | 1015.2 | |
| 20260502025104 | 10 | 296 | 3.2 | 8.0 | 0.00 | 0.23 | 0.23 | 1015.2 | |
| 20260502024605 | 10 | 296 | 3.2 | 11.3 | 0.00 | 0.23 | 0.23 | 1015.2 | |
| 20260502024103 | 10 | 296 | 8.0 | 8.0 | 0.00 | 0.23 | 0.23 | 1015.2 | |
| 20260502023604 | 10 | 295 | 3.2 | 8.0 | 0.00 | 0.23 | 0.23 | 1015.2 | |
| 20260502023104 | 10 | 295 | 4.8 | 11.3 | 0.00 | 0.23 | 0.23 | 1015.2 | |
| 20260502022604 | 10 | 295 | 4.8 | 11.3 | 0.00 | 0.23 | 0.23 | 1015.2 | |
| 20260502022104 | 10 | 295 | 3.2 | 8.0 | 0.00 | 0.23 | 0.23 | 1015.2 | |
| 20260502021603 | 10 | 295 | 8.0 | 11.3 | 0.00 | 0.23 | 0.23 | 1015.2 | |
| 20260502021104 | 10 | 295 | 8.0 | 11.3 | 0.00 | 0.23 | 0.23 | 1015.2 | |
| 20260502020604 | 10 | 295 | 3.2 | 11.3 | 0.00 | 0.23 | 0.23 | 1015.2 | |
| 20260502020104 | 10 | 295 | 9.7 | 11.3 | 0.00 | 0.23 | 0.23 | 1015.8 | |
| 20260502014603 | 10 | 295 | 8.0 | 11.3 | 0.00 | 0.23 | 0.23 | 1015.8 | |
| 20260502014105 | 10 | 294 | 9.7 | 11.3 | 0.00 | 0.23 | 0.23 | 1015.8 | |
| 20260502013603 | 10 | 295 | 4.8 | 11.3 | 0.00 | 0.23 | 0.23 | 1015.8 | |
| 20260502013104 | 10 | 294 | 11.3 | 11.3 | 0.00 | 0.23 | 0.23 | 1015.8 | |
| 20260502012605 | 10 | 294 | 11.3 | 14.5 | 0.00 | 0.23 | 0.23 | 1015.8 | |
| 20260502011603 | 10 | 294 | 11.3 | 20.9 | 0.00 | 0.23 | 0.23 | 1015.8 | |
| 20260502011103 | 10 | 294 | 11.3 | 11.3 | 0.00 | 0.23 | 0.23 | 1015.8 | |
| 20260502010605 | 10 | 294 | 11.3 | 11.3 | 0.00 | 0.23 | 0.23 | 1015.8 | |
| 20260502010104 | 10 | 294 | 8.0 | 8.0 | 0.00 | 0.23 | 0.23 | 1015.8 |